907  
ASUS41 KBOX 241910  
RWRBOX  
 
REGIONAL WEATHER ROUNDUP  
NATIONAL WEATHER SERVICE BOSTON/NORTON MA  
300 PM EDT SUN MAR 24 2019  
 
NOTE: "FAIR" INDICATES FEW OR NO CLOUDS BELOW 12,000 FEET WITH NO  
SIGNIFICANT WEATHER AND/OR S TO VISIBILITY
.  
 
MAZALL-242000-  
EASTERN MASSACHUSETTS  
 
CITY SKY/WX TMP DP RH WIND PRES REMARKS
 
BOSTON FAIR 59 15 18 SW20G25 29.94F  
BEVERLY FAIR 57 15 19 W15 29.93F  
LAWRENCE FAIR 57 16 20 SW16G23 29.93F  
BEDFORD FAIR 58 16 19 SW13G22 29.93F  
BLUE HILL N/A 54 15 21 W14G23 29.93F  
NORWOOD FAIR 58 14 17 SW10G21 29.95F  
MARSHFIELD FAIR 61 18 18 SW14G28 29.94F  
PLYMOUTH FAIR 57 17 21 SW15G24 29.97F  
TAUNTON FAIR 58 15 18 SW9G20 29.98F  
NEW BEDFORD FAIR 52 28 39 SW18 30.00F  

 
 
MAZALL-242000-  
CAPE COD AND THE ISLANDS  
 
CITY SKY/WX TMP DP RH WIND PRES REMARKS
 
FALMOUTH FAIR 48 27 43 SW18G36 30.01F  
HYANNIS FAIR 51 27 39 SW22G28 29.98F  
CHATHAM FAIR 47 29 49 SW13G26 30.01F  
PROVINCETOWN FAIR 48 33 56 SW17 29.97F  
NANTUCKET FAIR 45 31 58 SW23 30.05F  
MARTHAS VNYRD FAIR N/A N/A N/A W16G25 30.03F  

 
 
MAZALL-242000-  
CENTRAL AND WESTERN MASSACHUSETTS  
 
CITY SKY/WX TMP DP RH WIND PRES REMARKS
 
WORCESTER FAIR 52 18 26 SW13G31 29.95F  
FITCHBURG FAIR 56 16 20 W14 29.95F  
ORANGE FAIR 56 13 18 W6G21 29.96F  
SPRINGFIELD MOSUNNY 56 13 18 W9 29.97F  
WESTFIELD FAIR 55 14 19 SW13 29.99F  
NORTH ADAMS FAIR 50 19 29 VRB7 29.97F  
PITTSFIELD FAIR 46 19 34 W13 29.97F  

 
 
RIZALL-242000-  
RHODE ISLAND  
 
CITY SKY/WX TMP DP RH WIND PRES REMARKS
 
PROVIDENCE PTSUNNY 56 17 21 W12 30.00F  
NEWPORT FAIR 47 20 34 SW14G25 30.01F  
BLOCK ISLAND FAIR 44 32 62 SW23G30 30.06  
SMITHFIELD FAIR 54 15 21 W15 29.98F  
WESTERLY FAIR 48 24 39 SW13G20 30.05F  

 
 
CTZALL-242000-  
CONNECTICUT  
 
CITY SKY/WX TMP DP RH WIND PRES REMARKS
 
BRADLEY INTL PTSUNNY 56 12 17 W13 30.00F  
HARTFORD FAIR 57 16 20 W8G14 30.01F  
BRIDGEPORT FAIR 50 27 40 SW15 30.05F  
DANBURY FAIR 55 12 18 W9G18 30.04F  
GROTON FAIR 48 24 39 SW16 30.05F  
NEW HAVEN FAIR 50 25 37 SW14G21 30.04F  
CHESTER FAIR 52 18 25 SW10 30.04F  
MERIDEN FAIR 56 22 26 S14G23 30.02F  
WILLIMANTIC FAIR 55 16 21 SW12 30.00F  
OXFORD FAIR 54 16 22 W6 30.02F  

 
 
MEZ002-015-021-024-NHZ003-005-008-011-012-014-VTZ005-008-242000-  
NORTHERN NEW ENGLAND  
 
CITY SKY/WX TMP DP RH WIND PRES REMARKS
 
PORTLAND ME CLOUDY 55 20 25 W18G25 29.88F  
BANGOR ME CLOUDY 48 20 32 W14 29.85S  
CONCORD NH FAIR 55 18 23 W12 29.90F  
MANCHESTER NH PTSUNNY 57 10 15 VRB7G16 29.90F  
NASHUA NH FAIR 56 14 19 W9G24 29.93F  
PORTSMOUTH NH PTSUNNY 55 12 18 W13 29.89F  
JAFFREY NH FAIR 51 14 22 W7 29.93F  
KEENE NH FAIR 53 14 21 SW10G17 29.93F  
BURLINGTON VT PTSUNNY 45 23 42 S6 29.92F  
MT. WASHINGTON FOG 18 18 100 W58G70 N/A VSB 3/16WCI -7  

 
 
NYZ052-076-242000-  
EASTERN NEW YORK  
 
CITY SKY/WX TMP DP RH WIND PRES REMARKS
 
ALBANY CLOUDY 54 14 20 SW10 29.99F  
NEW YORK CITY PTSUNNY 58 11 15 SW15G23 30.07F  

 
 
ANZALL-242000-  
MARINE OBSERVATIONS  
 
STATION/POSITION TIME TEMP WIND PRES VSBY WAVE
 
AIR SEA DIR/SP/G HT/PER  
(UTC) (F) (DEG/KT/KT) (MB) (MI) (FT/S)  
BOSTON BUOY 1850 46 40 240/ 10/ 12 1013.5F 1/11  
BUZZARDS BAY 1800 230/ 23/ 26 1018.5F  
NANTUCKET SOUND 1850 42 39 240/ 21/ 25 1016.4F 2/ 4  
MASS BAY-STELLWA 1804 42 39 220/ 10/ 12 1013.2F 1 7/8  
ISLE OF SHOALS 1800 49 240/ 14/ 15 1013.0F  
S OF BLOCK IS 1900 42 N/A 5/ 5  

 
   
.....................KEY......................
 
 
SKY/WX - SKY CONDITION/PRESENT WEATHER  
TMP - TEMPERATURE IN FAHRENHEIT  
DWPT - DEWPOINT IN FAHRENHEIT  
RH - RELATIVE HUMIDITY IN PERCENT  
WIND - DIRECTION AND SPEED IN MPH  
PRES - MEAN SEA LEVEL PRESSURE IN INCHES OF HG  
WCI - WIND CHILL INDEX  
VSB - VISIBILITY IN MILES  
HX - HEAT INDEX  
TC - TEMPERATURE IN CELSIUS  
VRB - VARIABLE WIND DIRECTION  
N/A - NOT AVAILABLE  
 
 
CLICK HERE TO GO TO PREVIOUS BULLETINS.

The Nexlab MA Page
The Nexlab RI Page
The Nexlab NH Page
The Nexlab CT Page Main Text Page